Kirksville, MO

5:29 PM CDT on May 22, 2018 (GMT -0500)
Kirksville Regional

Weather History for KIRK - October, 2010

Change the Weather History Date:

Friday, October 8, 2010

  Actual Average Record
Temperature  
Mean Temperature 61 °F 56 °F  
Max Temperature 81 °F 67 °F 88 °F (1938)
Min Temperature 41 °F 45 °F 26 °F (1987)
Degree Days  
Heating Degree Days 4 10  
Month to date heating degree days 83 71  
Since 1 July heating degree days 149 178  
Cooling Degree Days 0 1  
Month to date cooling degree days 0 8  
Year to date cooling degree days 1138 935  
Growing Degree Days 12 (Base 50)    
Moisture  
Dew Point 50 °F    
Average Humidity 69    
Maximum Humidity 96    
Minimum Humidity 42    
Precipitation  
Precipitation 0.00 in 0.10 in 1.71 in (2004)
Month to date precipitation 0.00 0.87  
Year to date precipitation 49.28 32.39  
Sea Level Pressure  
Sea Level Pressure 30.10 in    
Wind  
Wind Speed 5 mph (SSW)    
Max Wind Speed 13 mph    
Max Gust Speed 24 mph    
Visibility 10 miles    
Events      
T = Trace of Precipitation, MM = Missing Value Source: NWS Daily Summary

Daily Weather History Graph

Daily Weather History Graph

Search for Another Location

Airport or City:

Astronomy

Oct. 08, 2010 Rise Set
Actual Time 7:13 AM CDT 6:41 PM CDT
Civil Twilight 6:46 AM CDT 7:08 PM CDT
Nautical Twilight 6:14 AM CDT 7:39 PM CDT
Astronomical Twilight 5:43 AM CDT 8:11 PM CDT
Moon 8:20 AM CDT (10/8) 6:55 PM CDT (10/8)
Length of Visible Light 12h 21m
Length of Day
11h 27m
New Moon, 1% of the Moon is Illuminated
Oct 8
New Moon
Oct 14
First Quarter
Oct 22
Full
Oct 30
Last Quarter
Nov 5
New

Hourly Weather History & Observations

Time (CDT) Temp. Windchill Dew Point Humidity Pressure Visibility Wind Dir Wind Speed Gust Speed Precip Events Conditions
12:55 AM 44.1 °F - 41.0 °F 89% 30.16 in 10.0 mi Calm Calm - N/A   Clear
1:55 AM 43.0 °F - 41.0 °F 93% 30.15 in 10.0 mi Calm Calm - N/A   Clear
2:55 AM 43.0 °F 41.3 °F 39.9 °F 89% 30.14 in 10.0 mi South 3.5 mph - N/A   Clear
3:55 AM 42.1 °F - 39.0 °F 89% 30.13 in 10.0 mi Calm Calm - N/A   Clear
4:55 AM 42.1 °F - 39.9 °F 92% 30.13 in 10.0 mi Calm Calm - N/A   Clear
5:55 AM 43.0 °F 40.3 °F 39.0 °F 86% 30.14 in 10.0 mi SSW 4.6 mph - N/A   Clear
6:55 AM 48.0 °F - 41.0 °F 77% 30.15 in 10.0 mi SSW 4.6 mph - N/A   Clear
7:55 AM 50.0 °F - 43.0 °F 77% 30.15 in 10.0 mi SSW 4.6 mph - N/A   Clear
8:55 AM 57.9 °F - 48.0 °F 70% 30.16 in 10.0 mi SSW 5.8 mph - N/A   Clear
9:55 AM 64.9 °F - 48.9 °F 56% 30.15 in 9.0 mi SSW 6.9 mph - N/A   Clear
10:19 AM 66.2 °F - 48.2 °F 52% 30.14 in 2.5 mi SW 10.4 mph - N/A   Haze
10:31 AM 68.0 °F - 48.2 °F 49% 30.14 in 7.0 mi SSW 10.4 mph 17.3 mph N/A   Clear
10:55 AM 70.0 °F - 50.0 °F 49% 30.14 in 10.0 mi SSW 9.2 mph - N/A   Clear
11:55 AM 73.9 °F - 52.0 °F 46% 30.13 in 10.0 mi SSW 6.9 mph - N/A   Clear
12:55 PM 77.0 °F - 54.0 °F 45% 30.11 in 10.0 mi Variable 6.9 mph - N/A   Clear
1:55 PM 79.0 °F - 55.9 °F 45% 30.08 in 10.0 mi SSW 8.1 mph - N/A   Clear
2:55 PM 81.0 °F - 57.0 °F 44% 30.06 in 10.0 mi SW 5.8 mph - N/A   Clear
3:55 PM 81.0 °F - 55.9 °F 42% 30.05 in 10.0 mi SSW 8.1 mph - N/A   Clear
4:55 PM 81.0 °F - 57.9 °F 45% 30.04 in 10.0 mi South 5.8 mph - N/A   Clear
5:55 PM 77.0 °F - 57.9 °F 52% 30.03 in 10.0 mi South 4.6 mph - N/A   Clear
6:55 PM 69.1 °F - 59.0 °F 70% 30.03 in 10.0 mi South 4.6 mph - N/A   Clear
7:55 PM 64.9 °F - 57.0 °F 75% 30.04 in 10.0 mi SSE 4.6 mph - N/A   Clear
8:55 PM 64.0 °F - 57.0 °F 78% 30.04 in 10.0 mi South 5.8 mph - N/A   Clear
9:55 PM 63.0 °F - 57.0 °F 81% 30.03 in 10.0 mi SSW 4.6 mph - N/A   Clear
10:55 PM 63.0 °F - 57.0 °F 81% 30.04 in 10.0 mi SSW 5.8 mph - N/A   Clear
11:55 PM 63.0 °F - 55.9 °F 78% 30.03 in 10.0 mi SSW 3.5 mph - N/A   Clear